Weather History for Talkeetna, AK

Change the Weather History Date:

Monday, December 3, 2012

  Actual Average Record
Temperature  
Mean Temperature 8 °F -  
Max Temperature 16 °F 18 °F 45 °F (2002)
Min Temperature 1 °F 0 °F -36 °F (1967)
Degree Days  
Heating Degree Days 56    
Moisture  
Dew Point -12 °F    
Average Humidity 31    
Maximum Humidity 36    
Minimum Humidity 16    
Precipitation  
Precipitation 0.00 in - - ()
Sea Level Pressure  
Sea Level Pressure 29.58 in    
Wind  
Wind Speed 13 mph (NNE)    
Max Wind Speed 20 mph    
Max Gust Speed 31 mph    
Visibility 10 miles    
Events      
Averages and records for this station are not official NWS values.
T = Trace of Precipitation, MM = Missing Value Source: NWS Daily Summary

Daily Weather History Graph

Daily Weather History Graph

Search for Another Location

Airport:

Trip Planner

Search our weather history database for the weather conditions in past years. The results will help you decide how hot, cold, wet, or windy it might be!

Date:

Astronomy

Dec. 03, 2012 Rise Set
Actual Time 10:03 AM AKST 3:37 PM AKST
Civil Twilight 9:00 AM AKST 4:40 PM AKST
Nautical Twilight 7:59 AM AKST 5:41 PM AKST
Astronomical Twilight 7:04 AM AKST 6:36 PM AKST
Moon 9:38 PM AKST (12/3) 12:34 PM AKST (12/3)
Length of Visible Light 7h 40m
Length of Day
5h 34m
Waning Gibbous, 77% of the Moon is Illuminated
Dec 3
Waning Gibbous
Dec 6
Last Quarter
Dec 12
New
Dec 19
First Quarter
Dec 28
Full

Hourly Weather History & Observations

Time (AKST) Temp. Windchill Dew Point Humidity Pressure Visibility Wind Dir Wind Speed Gust Speed Precip Events Conditions
12:53 AM 15.1 °F 3.3 °F -9.0 °F 34% 29.47 in 10.0 mi NNE 9.2 mph - N/A   Clear
1:53 AM 15.1 °F 4.2 °F -9.9 °F 32% 29.49 in 10.0 mi NNE 8.1 mph - N/A   Clear
3:53 AM 15.1 °F 0.5 °F -9.9 °F 32% 29.49 in 10.0 mi North 13.8 mph 23.0 mph N/A   Clear
4:53 AM 15.1 °F -0.6 °F -9.9 °F 32% 29.50 in 10.0 mi NNE 16.1 mph 24.2 mph N/A   Clear
5:53 AM 16.0 °F 0.6 °F -11.0 °F 30% 29.52 in 10.0 mi NNE 16.1 mph 21.9 mph N/A   Clear
6:53 AM 15.1 °F -1.1 °F -11.9 °F 29% 29.53 in 10.0 mi NNE 17.3 mph 26.5 mph N/A   Clear
7:53 AM 14.0 °F 1.2 °F -11.0 °F 32% 29.56 in 10.0 mi NNE 10.4 mph 20.7 mph N/A   Clear
8:53 AM 14.0 °F -0.2 °F -11.9 °F 31% 29.57 in 10.0 mi North 12.7 mph 18.4 mph N/A   Clear
9:53 AM 14.0 °F -0.2 °F -11.9 °F 31% 29.58 in 10.0 mi NNE 12.7 mph 20.7 mph N/A   Clear
10:53 AM 12.0 °F -1.3 °F -11.0 °F 35% 29.60 in 10.0 mi NE 10.4 mph - N/A   Clear
11:53 AM 12.0 °F -2.7 °F -11.0 °F 35% 29.60 in 10.0 mi NE 12.7 mph 19.6 mph N/A   Clear
12:53 PM 15.1 °F -2.0 °F -11.0 °F 31% 29.61 in 10.0 mi NNE 19.6 mph 26.5 mph N/A   Clear
1:53 PM 15.1 °F -1.6 °F -11.0 °F 31% 29.60 in 10.0 mi NNE 18.4 mph 29.9 mph N/A   Clear
2:53 PM 14.0 °F -2.5 °F -11.9 °F 31% 29.61 in 10.0 mi NNE 17.3 mph 31.1 mph N/A   Clear
3:53 PM 12.9 °F -4.4 °F -11.0 °F 34% 29.60 in 10.0 mi NNE 18.4 mph 31.1 mph N/A   Clear
4:53 PM 12.9 °F -0.9 °F -11.9 °F 32% 29.61 in 10.0 mi NNE 11.5 mph 21.9 mph N/A   Clear
5:53 PM 12.0 °F -2.7 °F -13.0 °F 32% 29.60 in 10.0 mi NNE 12.7 mph 27.6 mph N/A   Clear
6:53 PM 10.9 °F -7.5 °F -11.9 °F 35% 29.61 in 10.0 mi NNE 19.6 mph 27.6 mph N/A   Clear
7:53 PM 10.0 °F -2.9 °F -14.1 °F 33% 29.62 in 10.0 mi North 9.2 mph 21.9 mph N/A   Clear
8:53 PM 9.0 °F -5.9 °F -14.1 °F 35% 29.61 in 10.0 mi NNE 11.5 mph 20.7 mph N/A   Clear
9:53 PM 9.0 °F -4.2 °F -14.1 °F 35% 29.60 in 10.0 mi NNE 9.2 mph 23.0 mph N/A   Clear
10:53 PM 8.1 °F -5.3 °F -14.1 °F 36% 29.60 in 10.0 mi North 9.2 mph - N/A   Clear
11:53 PM 7.0 °F -6.6 °F -15.0 °F 36% 29.60 in 10.0 mi NNE 9.2 mph 23.0 mph N/A   Clear